Regional Weather Roundup
Issued by NWS Charleston, SC

Home | Current Version | Previous Version | Text Only | Print | Product List | Glossary On
Versions: 1 2 3 4 5 6 7 8 9 10 11 12 13 14 15 16 17 18 19 20 21 22 23 24 25 26 27 28 29 30 31 32 33 34 35 36 37 38 39 40 41 42 43 44 45 46 47 48 49 50
000
ASUS42 KCHS 210827
RWRCHS

Regional Weather Roundup
National Weather Service Charleston SC
400 AM EDT SAT APR 21 2018

NOTE: "fair" indicates few or no clouds below 12,000 feet with no
significant weather and/or obstructions to visibility.

Not all stations are quality controlled. Use data with caution,
especially dewpoint observations.

SCZ027-030-031-034>040-042>050-210900-
...Southeast South Carolina...

CITY           SKY/WX    TMP DP  RH WIND       PRES   REMARKS
N Charleston   FAIR      48  44  86 NE6       30.31R
Waterfront Prk NOT AVBL
Mount Pleasant FAIR      46  46 100 CALM      30.32R
Johns Island   FAIR      57  45  62 E9        30.31R
Pinopolis        N/A     52  46  82 CALM      30.22S
Moncks Corner  FAIR      43  41  93 CALM      30.32R
Summerville    FAIR      41  41 100 CALM      30.33R
Beaufort MCAS  FAIR      58  49  72 NE7       30.29R
Beaufort Arpt  FAIR      55  46  71 E6        30.29R
Hilton Head Is FAIR      61  39  44 E10G17    30.29R
Walterboro     FAIR      37  36  93 CALM      30.33R
Allendale      FAIR      45  41  87 CALM      30.31R

...Southern Midlands and Pee Dee...

CITY           SKY/WX    TMP DP  RH WIND       PRES   REMARKS
Georgetown     FAIR      52  43  71 E5        30.34R
Kingstree      FAIR      39  37  93 CALM      30.34R
Orangeburg     FAIR      42  39  89 NE3       30.32R
Barnwell       FAIR      41  37  87 CALM      30.32R
Aiken          FAIR      37  34  87 CALM      30.36R
Manning        FAIR      36  34  93 CALM      30.34R
Columbia       FAIR      42  39  89 CALM      30.33R
Sumter         FAIR      42  37  80 N3        30.31R
Florence       FAIR      43  39  86 NE3       30.35R
Myrtle Beach   FAIR      57  43  59 E9        30.35R
N Myrtle Beach FAIR      43  42  97 NE3       30.34R

$$

GAZ063-065-086>088-099>101-113>116-118-119-134>141-150-210900-
...Southeast Georgia...

CITY           SKY/WX    TMP DP  RH WIND       PRES   REMARKS
Savannah Arpt  FAIR      50  47  89 NE6       30.28R
Hunter AAF     FAIR      58  45  61 CALM      30.24S
Fort Stewart   MOCLDY    49  46  89 NE3       30.25R
Statesboro     FAIR      44  32  62 CALM      30.29R
Sylvania       FAIR      46  45  93 E5        30.30R
Claxton        FAIR      45  44  97 CALM      30.29R

...CSRA, Central and far Southeast Georgia...

CITY           SKY/WX    TMP DP  RH WIND       PRES   REMARKS
Thomson        FAIR      38  36  92 CALM      30.37R
Augusta-Bush   FAIR      39  38  96 CALM      30.32R
Augusta-Daniel FAIR      51  38  60 E5        30.32R
Swainsboro     FAIR      43  41  93 CALM      30.30R
Vidalia        FAIR      50  48  93 NE3       30.29R
Eastman        FAIR      47  40  74 CALM      30.31R
Hazlehurst     FAIR      55  47  74 E5        30.26R
Alma           FAIR      54  49  83 CALM      30.24F
Waycross       FAIR      55  52  90 E5        30.24S
Jesup          CLOUDY    55  50  82 CALM      30.25F
Baxley         FAIR      50  50 100 NE5       30.25S
Brunswick      CLOUDY    63  45  51 NE14      30.24S
Saint Simons   CLOUDY    64  49  57 NE13G22   30.23S

$$

SCZ027-028-034-036>038-045-046-048>050-GAZ119-141-210900-
...Lake and Supplemental Coastal Observations...

STATION/POSITION TIME  TEMP    WIND        PRES    WAVE   SWELL
                       AIR SEA DIR/SP/G            HT/PER HT/PER/DIR
                 (UTC) (F)     (DEG/KT/KT) (MB)    (FT/S) (FT/S/D)
Winyah Bay       0745   60      90/ 10     1026.0F
Lake Murray      0720   54     110/  4/  5 1025.7
ACE Basin NERRS  0745   53        CALM       N/A
Fort Pulaski     0800   63 65   90/ 18/ 22 1025.4
Sapelo Island    0800   62      60/ 11     1024.0

$$

ANZ835-935-AMZ111-154-330-350-352-354-370-450-454-472-210900-
...C-MAN and Buoy Observations...

STATION/POSITION TIME  TEMP    WIND        PRES    WAVE   SWELL
                       AIR SEA DIR/SP/G            HT/PER HT/PER/DIR
                 (UTC) (F)     (DEG/KT/KT) (MB)    (FT/S) (FT/S/D)
Buoy 41004       0810   63      70/ 19/ 23 1025.4
Buoy 41008       0750   64 64   70/ 17/ 21 1023.3F   5/ 6   2/ 70/10
Folly Beach CMAN 0800   61      80/ 18/ 20 1026.5R
Capers Nearshore 0808   62 63   90/ 16/ 21 1026.2R
Fripp Nearshore  0808   62 63   80/ 16/ 25 1024.8R


STATION/POSITION TIME  TEMP    WIND        PRES    WAVE   SWELL
                       AIR SEA DIR/SP/G            HT/PER HT/PER/DIR
                 (UTC) (F)     (DEG/KT/KT) (MB)    (FT/S) (FT/S/D)
5E St. Marys GA  0800      66                N/A     6/ 6   2/ 90/11
Frying Pan Buoy  0810   62      80/ 14/ 17 1026.8
Buoy 41025       0810   56 69   20/ 12/ 16 1028.6
Cape Lookout NC  0800           50/ 13/ 15 1028.5R
Buoy 41002       0810   62 71   60/ 12/ 19 1025.1
Buoy 41010       0810   72      60/ 21/ 27 1021.1
St Augustine FL  0800   69 66   90/ 12/ 13 1021.3S


$$



USA.gov is the U.S. government's official web portal to all federal, state and local government web resources and services.